METAR Formatted Surface Weather Observation
Issued by NWS Mt. Holly, NJ

Home | Current Version | Previous Version | Text Only | Print | Product List | Glossary On
Versions: 1 2 3 4 5 6 7 8 9 10 11 12 13 14 15 16 17 18 19 20 21 22 23 24 25 26 27 28 29 30 31 32 33 34 35 36 37 38 39 40 41 42 43 44 45 46 47 48 49 50
000
SAUS41 KPHI 230556
MTRACY
METAR KACY 230554Z 33016G24KT 8SM SCT010 BKN017 OVC024 11/09 A2969
RMK AO2 RAE22B42E51 SLP053 P0000 60023 T01060094 10111 20106 55005



USA.gov is the U.S. government's official web portal to all federal, state and local government web resources and services.